[[{"header":{"parameterUnit":"m.s-1","parameterCategory":2,"la1":30.2991,"la2":30.254,"lo1":-89.0895,"lo2":-89.0444,"dy":0.0017,"dx":0.0017,"nx":28,"ny":28,"refTime":"2025-11-11T09:00:00:Z","depth":"0","parameterNumber":2,"parameterNumberName":"U-component_of_CURRENTS"},"data":[0,0,0,0,0,0,0,0,0,0,0,0,0,0,0,0,0,0,0,0,0,0,0,0,0,0,0,0,0,0,0,0,0,0,0,0,0,0,0,0,0,0,0,0,0,0,0,0,0,0,0,0,0,0,0,0,0,0,0.3683,0.3685,0,0.3808,0.3809,0.3811,0.3872,0.3872,0.3873,0.3873,0.3887,0.3887,0.3888,0,0,0,0,0,0,0,0,0,0,0,0,0,0.3505,0.3507,0.3683,0.3685,0.3687,0.3808,0.3809,0.3811,0.3872,0.3872,0.3873,0.3873,0.3887,0.3887,0.3888,0,0,0,0,0,0,0,0,0,0,0,0,0,0.3598,0.3508,0.3683,0.3734,0.3741,0.3808,0.381,0.3811,0.3872,0.3872,0.3873,0.3873,0.3887,0.3887,0.3888,0.388,0,0,0.3888,0.3888,0,0,0,0,0,0,0,0,0.3593,0.3604,0.3725,0.3731,0.3738,0.3828,0.3752,0.383,0.3872,0.3818,0.3873,0.3873,0.3859,0.3862,0.3881,0.388,0.3881,0.3888,0.3888,0.3888,0.3888,0,0,0,0,0,0,0,0.3586,0.3599,0.3729,0.3727,0.3735,0.3754,0.3767,0.3768,0.383,0.3823,0.3829,0.3848,0.3861,0.3881,0.3881,0.3881,0.3888,0.3888,0.3888,0.3888,0.3912,0.3912,0,0,0,0,0,0,0.3577,0.3593,0.3725,0.3733,0.3669,0.3757,0.3772,0.3796,0.3833,0.3841,0.3847,0.385,0.388,0.3881,0.3882,0.3914,0.3888,0.3888,0.3889,0.3911,0.3912,0.3912,0,0,0,0,0,0,0.3573,0.3588,0.372,0.3668,0.3687,0.376,0.3786,0.3798,0.3826,0.3853,0.3858,0.3864,0.3881,0.3882,0.389,0.3913,0.3888,0.3889,0.3911,0.3911,0.3912,0.3951,0,0,0,0,0,0,0.3567,0.3585,0.3596,0.3668,0.369,0.377,0.3787,0.38,0.3838,0.3843,0.3868,0.387,0.3881,0.3889,0.389,0.3913,0.3889,0.391,0.3911,0.3912,0.3949,0.3953,0.3956,0,0,0,0,0,0.356,0.3578,0.3596,0.3612,0.3703,0.3771,0.3784,0.3834,0.3838,0.3858,0.3868,0.387,0.3896,0.389,0.389,0.3914,0.3909,0.3911,0.3912,0.3947,0.3952,0.3956,0,0,0,0,0,0,0.35,0.3589,0.3609,0.3651,0.3709,0.3783,0.3809,0.3833,0.3859,0.3861,0.3871,0.3874,0.3898,0.389,0.3882,0.3922,0.3905,0.3906,0.3932,0.3937,0.394,0.3946,0.3889,0,0,0,0,0,0.3492,0.3529,0.3612,0.364,0.3675,0.3737,0.3768,0.3806,0.3843,0.3857,0.3871,0.3883,0.3902,0.3905,0.3922,0.3929,0.3915,0.3946,0.3949,0.3953,0.3957,0.3973,0.3979,0.3916,0.3916,0.3916,0,0,0.3475,0.3526,0.3547,0.3629,0.3679,0.3732,0.3757,0.3814,0.3848,0.3849,0.3884,0.3899,0.3908,0.3936,0.3944,0.393,0.3955,0.3954,0.3957,0.396,0.3975,0.3981,0.3987,0.3917,0.3917,0.3917,0,0,0.3463,0.3509,0.3543,0.3597,0.368,0.3726,0.3742,0.382,0.3849,0.3874,0.3899,0.392,0.393,0.3961,0.3969,0.3994,0.3981,0.4002,0.402,0.4035,0.4041,0.4046,0.4001,0.4002,0.3997,0.3997,0.3997,0,0.3439,0.35,0.3559,0.361,0.3658,0.3722,0.3771,0.3811,0.3874,0.3899,0.3884,0.3939,0.3942,0.3995,0.401,0.4005,0.3993,0.4004,0.4041,0.4046,0.405,0.4004,0.4004,0.3999,0.3999,0.3998,0.3998,0,0.346,0.3515,0.3542,0.3629,0.3677,0.3736,0.3808,0.3849,0.3872,0.3911,0.3962,0.3973,0.4005,0.4016,0.4015,0.4066,0.4039,0.4051,0.4031,0.4059,0.4007,0.4007,0.4002,0.4001,0.4,0.4,0,0,0.34,0.3535,0.3543,0.3576,0.3702,0.3726,0.3804,0.3887,0.3902,0.3963,0.398,0.4041,0.4058,0.4069,0.4088,0.4099,0.4102,0.4088,0.4088,0.4045,0.4098,0.3979,0.3966,0.4131,0.4132,0.4133,0.4037,0,0.3407,0.348,0.3564,0.3621,0.3667,0.3762,0.3806,0.3877,0.3921,0.3944,0.4005,0.402,0.4077,0.4071,0.4111,0.4106,0.4109,0.4124,0.4077,0.4074,0.3968,0.3966,0.3811,0.3705,0.4037,0.4037,0.4037,0,0.3405,0.3455,0.3522,0.3603,0.363,0.3667,0.3737,0.3788,0.3874,0.3903,0.3982,0.4015,0.4076,0.4079,0.4134,0.4145,0.413,0.4117,0.4114,0.3993,0.3956,0.3739,0.3692,0.362,0.4035,0.4036,0.4036,0,0.3301,0.3416,0.3455,0.3494,0.3602,0.3633,0.368,0.377,0.3809,0.3873,0.3882,0.3987,0.3985,0.4045,0.4059,0.4096,0.4059,0.4099,0.3979,0.3967,0.3819,0.3793,0.3699,0.4116,0.4116,0.4117,0.4117,0,0.328,0.3303,0.3397,0.3417,0.3438,0.3526,0.3558,0.3623,0.3698,0.3722,0.3843,0.3857,0.3978,0.399,0.4027,0.3985,0.4044,0.397,0.3943,0.3821,0.3798,0.3716,0.3699,0.4113,0.4114,0.4114,0.4115,0,0.3184,0.3257,0.3296,0.3383,0.3401,0.3404,0.3502,0.3515,0.3593,0.3621,0.364,0.3748,0.3764,0.3842,0.3868,0.3893,0.3762,0.3843,0.3658,0.3613,0.3452,0.3443,0.321,0.3115,0.3706,0.3703,0.37,0,0.3148,0.3162,0.3242,0.3249,0.3297,0.3327,0.3352,0.3456,0.3484,0.3551,0.3543,0.357,0.3582,0.3573,0.3597,0.3599,0.3573,0.345,0.3508,0.3402,0.3374,0.3301,0.3235,0.3308,0.3303,0.3298,0.3294,0,0.3083,0.3116,0.3156,0.3161,0.3181,0.3201,0.324,0.3252,0.3347,0.3355,0.3336,0.3335,0.3344,0.3276,0.3278,0.3291,0.3279,0.335,0.3306,0.3098,0.2947,0.2855,0.3383,0.3251,0.3256,0.3259,0.3261,0.3263,0.3031,0.3031,0.3062,0.3061,0.3072,0.303,0.2993,0.3034,0.3021,0.2985,0.3089,0.3016,0.3051,0.3038,0.301,0.2893,0.2953,0.2858,0.2863,0.2805,0.2685,0.3084,0.2894,0.2896,0.2898,0.29,0.2901,0,0.2924,0.2932,0.294,0.291,0.285,0.2892,0.2874,0.2802,0.2712,0.2747,0.2708,0.2667,0.2601,0.2631,0.2567,0.2456,0.2393,0.2389,0.2285,0.2257,0.2662,0.2621,0.2283,0.2283,0.2283,0.2283,0.2283,0.2283,0.2862,0.2824,0.2823,0.2685,0.2647,0.2498,0.2447,0.2369,0.2359,0.2241,0.2194,0.2238,0.2354,0.2349,0.2223,0.2162,0.2027,0.1882,0.1924,0.2265,0.2312,0.2356,0.2314,0.1917,0.1917,0.1432,0.1428,0.1425]},{"header":{"parameterUnit":"m.s-1","parameterCategory":2,"la1":30.2991,"la2":30.254,"lo1":-89.0895,"lo2":-89.0444,"dy":0.0017,"dx":0.0017,"nx":28,"ny":28,"refTime":"2025-11-11T09:00:00:Z","depth":"0","parameterNumber":3,"parameterNumberName":"V-component_of_CURRENTS"},"data":[0,0,0,0,0,0,0,0,0,0,0,0,0,0,0,0,0,0,0,0,0,0,0,0,0,0,0,0,0,0,0,0,0,0,0,0,0,0,0,0,0,0,0,0,0,0,0,0,0,0,0,0,0,0,0,0,0,0,-0.0187,-0.0188,0,-0.0326,-0.0327,-0.0329,-0.0423,-0.0423,-0.0424,-0.0424,-0.056,-0.0564,-0.0567,0,0,0,0,0,0,0,0,0,0,0,0,0,-0.005,-0.0051,-0.0187,-0.0188,-0.019,-0.0325,-0.0327,-0.033,-0.0423,-0.0423,-0.0424,-0.0424,-0.0559,-0.0563,-0.0567,0,0,0,0,0,0,0,0,0,0,0,0,0,-0.0143,-0.0052,-0.0186,-0.0251,-0.0258,-0.0325,-0.0327,-0.033,-0.0422,-0.0423,-0.0424,-0.0424,-0.0558,-0.0563,-0.0568,-0.0584,0,0,-0.0582,-0.0584,0,0,0,0,0,0,0,0,-0.0137,-0.0148,-0.024,-0.0246,-0.0254,-0.0355,-0.0329,-0.0414,-0.0422,-0.0362,-0.0424,-0.0425,-0.049,-0.05,-0.0528,-0.059,-0.0596,-0.0583,-0.0586,-0.0588,-0.0589,0,0,0,0,0,0,0,-0.0131,-0.0143,-0.0244,-0.0241,-0.025,-0.0289,-0.0303,-0.0346,-0.0422,-0.0368,-0.0374,-0.0386,-0.0494,-0.0523,-0.0532,-0.0598,-0.0583,-0.0587,-0.059,-0.0592,-0.0667,-0.0667,0,0,0,0,0,0,-0.0106,-0.0137,-0.024,-0.0248,-0.0194,-0.029,-0.0306,-0.0324,-0.0422,-0.0437,-0.0385,-0.0389,-0.0515,-0.0526,-0.0537,-0.0524,-0.0588,-0.0592,-0.0595,-0.0668,-0.0667,-0.0666,0,0,0,0,0,0,-0.0103,-0.0114,-0.0234,-0.0193,-0.0211,-0.0291,-0.0312,-0.0327,-0.0352,-0.0435,-0.045,-0.0394,-0.0516,-0.053,-0.0582,-0.0532,-0.0594,-0.0599,-0.0669,-0.0668,-0.0667,-0.0523,0,0,0,0,0,0,-0.0098,-0.0112,-0.0112,-0.0192,-0.0212,-0.0262,-0.0311,-0.0329,-0.0358,-0.0365,-0.0448,-0.0462,-0.0517,-0.0575,-0.0587,-0.0539,-0.0603,-0.0671,-0.0669,-0.0667,-0.0529,-0.0517,-0.0506,0,0,0,0,0,-0.0093,-0.0083,-0.0111,-0.0123,-0.0211,-0.0261,-0.0275,-0.0337,-0.0357,-0.0363,-0.0429,-0.0459,-0.0572,-0.0579,-0.0593,-0.0545,-0.0671,-0.0669,-0.0667,-0.0534,-0.0519,-0.0507,0,0,0,0,0,0,-0.0019,-0.0094,-0.0126,-0.014,-0.0192,-0.0276,-0.028,-0.0324,-0.0381,-0.0383,-0.0465,-0.0483,-0.0508,-0.0554,-0.0559,-0.0564,-0.0619,-0.062,-0.0512,-0.0499,-0.0488,-0.0418,-0.0607,0,0,0,0,0,-0.0002,-0.0016,-0.0096,-0.0102,-0.0122,-0.0198,-0.0224,-0.0266,-0.0328,-0.0353,-0.0413,-0.0468,-0.0511,-0.0528,-0.0581,-0.0587,-0.0579,-0.0562,-0.0551,-0.0541,-0.0494,-0.0441,-0.0419,-0.066,-0.066,-0.066,0,0,0.0025,-0.0014,-0.0024,-0.0086,-0.0128,-0.0141,-0.0215,-0.0241,-0.0241,-0.0357,-0.0371,-0.044,-0.051,-0.0523,-0.0533,-0.0551,-0.0475,-0.0538,-0.0529,-0.0487,-0.0436,-0.0412,-0.039,-0.0658,-0.0659,-0.0659,0,0,0.0083,0.004,0.0048,0.0013,-0.0041,-0.0087,-0.0087,-0.0165,-0.0188,-0.0229,-0.0297,-0.0321,-0.0414,-0.0424,-0.0448,-0.0401,-0.0428,-0.0434,-0.0305,-0.0254,-0.0232,-0.0213,-0.0187,-0.0167,-0.0415,-0.0415,-0.0414,0,0.0121,0.0116,0.0045,0.0048,0.0041,-0.0051,-0.0033,-0.0072,-0.0155,-0.0141,-0.0214,-0.0272,-0.0347,-0.0302,-0.0309,-0.0364,-0.0363,-0.0348,-0.0233,-0.0214,-0.0196,-0.0175,-0.0154,-0.0407,-0.0408,-0.0409,-0.041,0,0.0177,0.0178,0.0188,0.0161,0.0143,0.0144,0.0086,0.0077,0.003,-0.0001,0.0012,-0.0085,-0.0101,-0.0138,-0.0226,-0.013,-0.018,-0.0232,-0.0253,-0.0162,-0.0148,-0.0128,-0.0397,-0.04,-0.0402,-0.0404,0,0,0.025,0.0231,0.0236,0.0253,0.0208,0.0202,0.0224,0.0229,0.0282,0.0205,0.0282,0.0193,0.016,0.0132,0.0051,0.0078,0.0164,-0.0027,-0.0028,0.0025,0.0261,0.0146,0.0155,0.0125,0.0129,0.0133,0.0216,0,0.0319,0.0364,0.0333,0.0388,0.0408,0.0361,0.0399,0.0399,0.0382,0.0427,0.0386,0.0399,0.026,0.0256,0.0269,0.0178,0.0223,0.0146,0.0143,0.0144,0.0054,0.0178,0.015,0.0216,0.0235,0.0238,0.024,0,0.0383,0.0408,0.0472,0.0522,0.053,0.0551,0.0623,0.0646,0.0691,0.0686,0.0718,0.066,0.0686,0.0547,0.0533,0.048,0.04,0.0334,0.0335,0.0204,0.0067,0.0128,0.025,0.0133,0.027,0.0267,0.0265,0,0.0468,0.0513,0.0575,0.0581,0.0612,0.0658,0.0688,0.0737,0.0796,0.087,0.0914,0.093,0.0928,0.0869,0.0675,0.0623,0.0645,0.0564,0.0414,0.0403,0.0373,0.0351,0.0413,0.0616,0.0616,0.0616,0.0616,0,0.055,0.0601,0.0621,0.065,0.0758,0.0754,0.088,0.0915,0.1002,0.11,0.1061,0.1125,0.1002,0.0958,0.0801,0.0658,0.0756,0.0488,0.0443,0.0413,0.0395,0.028,0.0196,0.0619,0.0618,0.0618,0.0617,0,0.0621,0.0629,0.0705,0.0763,0.0791,0.0871,0.0977,0.1073,0.1135,0.1266,0.1298,0.1299,0.1233,0.1086,0.0977,0.0809,0.0609,0.0615,0.0563,0.051,0.0241,0.0165,0.0171,0.012,0.0514,0.0512,0.051,0,0.0659,0.0701,0.0783,0.084,0.0864,0.0972,0.1054,0.1135,0.1233,0.1355,0.1429,0.1414,0.1388,0.1186,0.0915,0.0699,0.0565,0.0522,0.0427,0.0274,0.0158,0.0096,0.0051,0.0444,0.0442,0.044,0.0439,0,0.0736,0.0757,0.0816,0.0925,0.1011,0.1121,0.1238,0.133,0.1433,0.1523,0.1611,0.1606,0.14,0.115,0.083,0.0666,0.0424,0.0477,0.0373,0.0173,0.0066,-0.0022,0.0313,0.0424,0.0425,0.0426,0.0427,0.0428,0.0791,0.0845,0.0913,0.1018,0.1118,0.124,0.133,0.1447,0.1583,0.1701,0.1707,0.1695,0.1364,0.0915,0.0687,0.0271,0.0285,0.0142,0.0084,0.0053,-0.0052,0.0221,0.0224,0.0225,0.0225,0.0225,0.0226,0,0.085,0.0903,0.1003,0.1113,0.1212,0.1258,0.1427,0.1508,0.1633,0.1733,0.1774,0.1588,0.1181,0.0797,0.0227,-0.006,-0.0132,-0.0193,-0.0239,-0.025,0.0062,-0.0004,-0.0115,-0.0115,-0.0115,-0.0115,-0.0115,-0.0115,0.0885,0.0967,0.1005,0.1154,0.1233,0.1353,0.1438,0.1556,0.1651,0.1723,0.1701,0.167,0.1357,0.0408,-0.0208,-0.0333,-0.0494,-0.0575,-0.0629,-0.0399,-0.037,-0.0343,-0.042,-0.0618,-0.0618,-0.0899,-0.0902,-0.0905]}],[{"header":{"parameterUnit":"m.s-1","parameterCategory":2,"la1":30.2991,"la2":30.254,"lo1":-89.0895,"lo2":-89.0444,"dy":0.0017,"dx":0.0017,"nx":28,"ny":28,"refTime":"2025-11-11T09:00:00:Z","depth":"2","parameterNumber":2,"parameterNumberName":"U-component_of_CURRENTS"},"data":[0,0,0,0,0,0,0,0,0,0,0,0,0,0,0,0,0,0,0,0,0,0,0,0,0,0,0,0,0,0,0,0,0,0,0,0,0,0,0,0,0,0,0,0,0,0,0,0,0,0,0,0,0,0,0,0,0,0,0.251,0.251,0,0.2517,0.2517,0.2518,0.2565,0.2565,0.2566,0.2566,0.2624,0.2625,0.2626,0,0,0,0,0,0,0,0,0,0,0,0,0,0.2502,0.2503,0.251,0.251,0.2509,0.2516,0.2517,0.2518,0.2565,0.2565,0.2566,0.2566,0.2624,0.2625,0.2627,0,0,0,0,0,0,0,0,0,0,0,0,0,0.2515,0.2503,0.251,0.2527,0.2527,0.2516,0.2517,0.2519,0.2565,0.2566,0.2566,0.2566,0.2623,0.2625,0.2627,0.2628,0,0,0.2632,0.2633,0,0,0,0,0,0,0,0,0.2514,0.2517,0.2525,0.2525,0.2526,0.2533,0.2535,0.2555,0.2565,0.256,0.2566,0.2567,0.2592,0.2596,0.2609,0.2631,0.2633,0.2633,0.2634,0.2634,0.2635,0,0,0,0,0,0,0,0.2514,0.2516,0.2522,0.2524,0.2524,0.252,0.2524,0.2539,0.2581,0.2561,0.2562,0.2548,0.2594,0.2607,0.261,0.2634,0.2632,0.2634,0.2635,0.2636,0.2707,0.2708,0,0,0,0,0,0,0.2496,0.2516,0.2521,0.2521,0.2511,0.2519,0.2524,0.2537,0.258,0.2584,0.2548,0.255,0.2603,0.2608,0.2612,0.2675,0.2634,0.2636,0.2637,0.2706,0.2707,0.2708,0,0,0,0,0,0,0.2497,0.2498,0.2521,0.251,0.2511,0.2518,0.2533,0.2537,0.2567,0.2568,0.2575,0.2574,0.2604,0.261,0.2621,0.2676,0.2637,0.2639,0.2705,0.2706,0.2707,0.2763,0,0,0,0,0,0,0.2497,0.2499,0.2508,0.2509,0.2511,0.2522,0.2532,0.2536,0.2552,0.2557,0.2593,0.2597,0.2605,0.2618,0.2623,0.2678,0.264,0.2704,0.2706,0.2707,0.2761,0.2766,0.2771,0,0,0,0,0,0.2497,0.2501,0.251,0.2509,0.2523,0.2521,0.2524,0.2535,0.2553,0.2567,0.2577,0.2597,0.2632,0.2619,0.2625,0.2682,0.2703,0.2705,0.2707,0.2758,0.2765,0.2771,0,0,0,0,0,0,0.2496,0.2505,0.2515,0.2521,0.2524,0.2526,0.2535,0.2545,0.2568,0.2579,0.2592,0.2597,0.2644,0.2637,0.2622,0.2704,0.2678,0.2681,0.2715,0.2722,0.2727,0.2744,0.2642,0,0,0,0,0,0.2499,0.2514,0.2514,0.252,0.2528,0.2539,0.2542,0.2552,0.2561,0.2574,0.26,0.2624,0.2653,0.2663,0.2689,0.2713,0.2701,0.2756,0.2762,0.2766,0.2782,0.2802,0.2811,0.2714,0.2714,0.2714,0,0,0.2493,0.2503,0.2508,0.2521,0.2534,0.2546,0.2547,0.2559,0.2582,0.2575,0.263,0.2651,0.2664,0.2706,0.2727,0.2706,0.2779,0.2769,0.2773,0.2786,0.2805,0.2815,0.2823,0.2715,0.2715,0.2714,0,0,0.2486,0.2512,0.2522,0.2535,0.2547,0.2555,0.2562,0.2584,0.2616,0.2642,0.2663,0.2687,0.2734,0.2748,0.276,0.2801,0.2817,0.284,0.2874,0.2893,0.2902,0.2909,0.287,0.2873,0.2831,0.2831,0.2831,0,0.2481,0.2497,0.252,0.2538,0.2533,0.2564,0.2563,0.2609,0.2634,0.2667,0.2666,0.276,0.275,0.2813,0.2825,0.2816,0.2825,0.285,0.2901,0.2909,0.2916,0.2874,0.2877,0.2834,0.2834,0.2833,0.2833,0,0.2492,0.2501,0.2511,0.2548,0.2548,0.2558,0.2596,0.2646,0.2683,0.2723,0.2812,0.2813,0.2854,0.2876,0.2858,0.2928,0.2915,0.2916,0.2888,0.2929,0.2881,0.2884,0.2838,0.2837,0.2836,0.2835,0,0,0.2469,0.251,0.2509,0.2517,0.255,0.255,0.2612,0.2665,0.2728,0.2799,0.2849,0.2917,0.2944,0.2957,0.2966,0.2989,0.3001,0.2982,0.2982,0.2946,0.303,0.2948,0.2942,0.3042,0.3043,0.3045,0.2964,0,0.2463,0.2479,0.2496,0.2503,0.2506,0.2554,0.2609,0.2674,0.2739,0.2811,0.2877,0.2943,0.2973,0.299,0.3022,0.3015,0.302,0.3021,0.2993,0.299,0.2917,0.2947,0.2749,0.2657,0.2966,0.2967,0.2967,0,0.2454,0.2463,0.2457,0.2482,0.2492,0.2516,0.2591,0.2649,0.2778,0.2837,0.2936,0.2982,0.3036,0.3033,0.3083,0.31,0.3068,0.3065,0.3061,0.2974,0.2915,0.2673,0.265,0.2971,0.297,0.297,0.297,0,0.2403,0.2424,0.2412,0.2423,0.2474,0.2501,0.2551,0.2668,0.2721,0.2862,0.2899,0.301,0.3038,0.307,0.3071,0.3079,0.3104,0.3082,0.2983,0.2973,0.279,0.2763,0.3103,0.3103,0.3103,0.3103,0.3104,0,0.237,0.2364,0.2402,0.2405,0.2429,0.2475,0.253,0.2636,0.2726,0.279,0.2913,0.2953,0.3064,0.3087,0.3073,0.3043,0.3098,0.2995,0.2964,0.2798,0.2774,0.3044,0.3039,0.31,0.3101,0.3102,0.3102,0,0.231,0.2334,0.234,0.239,0.2405,0.2437,0.2501,0.2549,0.2678,0.2743,0.2781,0.2911,0.2961,0.3031,0.3053,0.3028,0.3003,0.2972,0.275,0.2696,0.2842,0.284,0.2819,0.2816,0.2813,0.2811,0.2809,0,0.2279,0.2269,0.232,0.2323,0.2347,0.2388,0.2413,0.2527,0.2566,0.2706,0.2714,0.2805,0.2838,0.2856,0.2852,0.2817,0.2911,0.2606,0.2577,0.285,0.2821,0.2824,0.2826,0.2326,0.232,0.2316,0.2312,0,0.2211,0.2243,0.2247,0.2262,0.2277,0.2285,0.2333,0.2344,0.2476,0.2523,0.2571,0.26,0.2659,0.2556,0.2572,0.2529,0.2601,0.2507,0.2861,0.2446,0.2384,0.2357,0.2375,0.227,0.2275,0.2278,0.228,0.2282,0.2164,0.2149,0.2161,0.2168,0.2189,0.2179,0.2146,0.2187,0.2205,0.2262,0.2358,0.2343,0.2384,0.2281,0.2202,0.2163,0.2332,0.2235,0.225,0.227,0.2245,0.2184,0.2024,0.2026,0.2028,0.2031,0.2032,0,0.2072,0.2059,0.2055,0.2051,0.203,0.208,0.2071,0.2011,0.198,0.2063,0.2083,0.1917,0.1852,0.1884,0.1754,0.1751,0.1749,0.168,0.1661,0.1704,0.1742,0.1691,0.1322,0.1319,0.1317,0.1315,0,0,0.2014,0.196,0.1948,0.1881,0.1882,0.1797,0.1763,0.1714,0.1725,0.1679,0.166,0.1795,0.1841,0.1557,0.1523,0.1394,0.1541,0.1346,0.1923,0.1945,0.198,0.2075,0.2047,0,0,0,0,0]},{"header":{"parameterUnit":"m.s-1","parameterCategory":2,"la1":30.2991,"la2":30.254,"lo1":-89.0895,"lo2":-89.0444,"dy":0.0017,"dx":0.0017,"nx":28,"ny":28,"refTime":"2025-11-11T09:00:00:Z","depth":"2","parameterNumber":3,"parameterNumberName":"V-component_of_CURRENTS"},"data":[0,0,0,0,0,0,0,0,0,0,0,0,0,0,0,0,0,0,0,0,0,0,0,0,0,0,0,0,0,0,0,0,0,0,0,0,0,0,0,0,0,0,0,0,0,0,0,0,0,0,0,0,0,0,0,0,0,0,0.0282,0.0282,0,0.0264,0.0264,0.0264,0.024,0.024,0.024,0.024,0.0125,0.0122,0.0119,0,0,0,0,0,0,0,0,0,0,0,0,0,0.0249,0.0249,0.0282,0.0282,0.0282,0.0265,0.0264,0.0263,0.024,0.024,0.024,0.024,0.0126,0.0123,0.0119,0,0,0,0,0,0,0,0,0,0,0,0,0,0.0247,0.025,0.0282,0.0271,0.027,0.0265,0.0264,0.0263,0.024,0.024,0.024,0.024,0.0127,0.0123,0.0119,0.0093,0,0,0.0105,0.0103,0,0,0,0,0,0,0,0,0.0247,0.0248,0.0272,0.0272,0.0271,0.0258,0.0211,0.0203,0.024,0.0248,0.024,0.024,0.0163,0.0155,0.0149,0.0087,0.0082,0.0104,0.0102,0.01,0.0098,0,0,0,0,0,0,0,0.0247,0.0248,0.0271,0.0273,0.0272,0.0252,0.0251,0.0209,0.0201,0.0247,0.0246,0.025,0.0161,0.0153,0.0146,0.0081,0.0105,0.0101,0.0098,0.0096,0.0041,0.0042,0,0,0,0,0,0,0.026,0.0249,0.0272,0.0271,0.0263,0.0253,0.0252,0.0259,0.0204,0.0197,0.025,0.0249,0.0161,0.0151,0.0141,0.0125,0.01,0.0096,0.0093,0.0039,0.0041,0.0042,0,0,0,0,0,0,0.0259,0.0262,0.0273,0.0262,0.0262,0.0254,0.0261,0.0259,0.0254,0.0208,0.0199,0.0249,0.016,0.0148,0.0117,0.012,0.0094,0.0089,0.0038,0.004,0.0042,0.0081,0,0,0,0,0,0,0.0258,0.0262,0.0268,0.0263,0.0264,0.0279,0.0262,0.0259,0.0258,0.0256,0.0204,0.0193,0.0159,0.0124,0.0112,0.0113,0.0086,0.0036,0.0039,0.0041,0.0079,0.0084,0.0089,0,0,0,0,0,0.0257,0.0273,0.0268,0.0271,0.0273,0.028,0.0278,0.0268,0.0258,0.0262,0.023,0.0195,0.0131,0.0121,0.0107,0.0107,0.0035,0.0038,0.0041,0.0076,0.0083,0.0089,0,0,0,0,0,0,0.0264,0.0272,0.0267,0.0285,0.0285,0.0277,0.028,0.0272,0.025,0.0244,0.0198,0.0185,0.0158,0.0135,0.0126,0.0103,0.0082,0.0082,0.0114,0.012,0.0125,0.0144,0.0082,0,0,0,0,0,0.0269,0.028,0.0283,0.0296,0.0297,0.0287,0.0287,0.0282,0.0265,0.0256,0.0223,0.0191,0.0159,0.0143,0.0109,0.0091,0.0062,0.0089,0.0094,0.0099,0.0109,0.0073,0.0076,0.0051,0.0051,0.0051,0,0,0.0274,0.0281,0.0287,0.0297,0.0293,0.0306,0.0286,0.0291,0.0299,0.0244,0.0237,0.0198,0.0157,0.0138,0.0126,0.012,0.0091,0.0103,0.0106,0.0114,0.0076,0.0078,0.008,0.0053,0.0053,0.0053,0,0,0.0297,0.0297,0.0315,0.0319,0.0322,0.0319,0.0324,0.0318,0.0312,0.0302,0.0265,0.024,0.0193,0.0172,0.0153,0.0172,0.0115,0.0158,0.0201,0.0167,0.0168,0.0169,0.0131,0.0128,0.0169,0.0169,0.0169,0,0.0303,0.033,0.032,0.0339,0.035,0.0329,0.0353,0.0344,0.033,0.0329,0.0309,0.0255,0.0215,0.0196,0.0204,0.0182,0.0148,0.0174,0.0172,0.0172,0.0172,0.0133,0.0129,0.0171,0.0171,0.0171,0.017,0,0.034,0.0361,0.0371,0.0389,0.0397,0.0413,0.0407,0.0406,0.0393,0.0385,0.0363,0.0313,0.0287,0.0269,0.0235,0.0221,0.0191,0.0173,0.015,0.0176,0.0134,0.0129,0.0174,0.0174,0.0173,0.0172,0,0,0.0362,0.0392,0.0398,0.0419,0.0428,0.0442,0.0452,0.0463,0.0478,0.0444,0.0454,0.0399,0.037,0.0348,0.0302,0.0273,0.0235,0.0225,0.0222,0.018,0.0147,0.0135,0.0128,0.0204,0.0204,0.0203,0.0115,0,0.0396,0.0446,0.0452,0.0499,0.0525,0.0514,0.0533,0.0534,0.0526,0.0525,0.0471,0.046,0.04,0.0388,0.0344,0.0263,0.0226,0.0261,0.0136,0.0133,0.0111,0.0123,0.0154,0.0078,0.011,0.0109,0.0108,0,0.0437,0.0467,0.052,0.0565,0.0576,0.0598,0.0627,0.0643,0.063,0.0623,0.0594,0.0548,0.0497,0.0446,0.0321,0.034,0.025,0.0185,0.0179,0.0153,0.0112,0.006,0.0068,0.01,0.0101,0.0101,0.0102,0,0.0467,0.0519,0.0565,0.0578,0.0618,0.064,0.0664,0.0674,0.0697,0.069,0.0699,0.0624,0.0596,0.0474,0.0337,0.0323,0.0194,0.016,0.0064,0.0061,0.0058,0.0057,0.0073,0.0073,0.0073,0.0074,0.0074,0,0.0506,0.0545,0.0583,0.0609,0.0669,0.0684,0.0745,0.0757,0.0774,0.0811,0.0753,0.0748,0.0601,0.0506,0.0361,0.0203,0.0211,0.0074,0.0041,0.0074,0.0075,0.0074,0.0075,0.007,0.0071,0.0072,0.0072,0,0.0533,0.0555,0.0614,0.0666,0.0686,0.0732,0.0801,0.0842,0.0859,0.09,0.0902,0.0839,0.0724,0.0568,0.0382,0.0255,0.0098,0.0038,0.0087,0.0062,-0.0025,-0.002,-0.0083,-0.0085,-0.0086,-0.0086,-0.0087,0,0.0551,0.0581,0.0655,0.0695,0.0722,0.0789,0.0838,0.0879,0.0925,0.095,0.0966,0.0887,0.0826,0.0559,0.0342,0.0111,0.0079,-0.0014,-0.003,-0.0013,-0.0039,-0.0033,-0.0027,-0.0026,-0.0026,-0.0026,-0.0026,0,0.0585,0.0608,0.0655,0.0737,0.0796,0.0869,0.0941,0.0987,0.1038,0.1065,0.1071,0.1027,0.0807,0.0587,0.0305,0.0148,0.0027,-0.0024,-0.0018,0.0017,0.0036,0.0012,0.0017,-0.0027,-0.0027,-0.0027,-0.0027,-0.0027,0.0609,0.0645,0.0703,0.0783,0.0854,0.0937,0.0997,0.1066,0.1132,0.1183,0.114,0.1081,0.0864,0.0495,0.025,0.001,0.0009,-0.0084,-0.0081,-0.008,-0.0049,-0.0032,-0.0102,-0.0103,-0.0103,-0.0103,-0.0104,0,0.0634,0.0675,0.0747,0.0837,0.0912,0.0948,0.1053,0.1104,0.1179,0.1224,0.1224,0.1004,0.0774,0.0519,0.0166,-0.0052,-0.006,-0.0123,-0.0083,-0.008,-0.0078,-0.0047,-0.0101,-0.0101,-0.0102,-0.0103,0,0,0.0647,0.0707,0.0741,0.086,0.0927,0.1016,0.1074,0.1151,0.1201,0.1229,0.1203,0.1155,0.0845,0.0588,0.0302,0.01,0.0059,0.0061,0.0083,0.0167,0.0172,-0.0031,0.0024,0,0,0,0,0]}],[{"header":{"parameterUnit":"m.s-1","parameterCategory":2,"la1":30.2991,"la2":30.254,"lo1":-89.0895,"lo2":-89.0444,"dy":0.0017,"dx":0.0017,"nx":28,"ny":28,"refTime":"2025-11-11T09:00:00:Z","depth":"4","parameterNumber":2,"parameterNumberName":"U-component_of_CURRENTS"},"data":[0,0,0,0,0,0,0,0,0,0,0,0,0,0,0,0,0,0,0,0,0,0,0,0,0,0,0,0,0,0,0,0,0,0,0,0,0,0,0,0,0,0,0,0,0,0,0,0,0,0,0,0,0,0,0,0,0,0,0.1175,0.1175,0,0.1176,0.1175,0.1175,0.1161,0.1162,0.1162,0.1162,0.1252,0.1254,0.1256,0,0,0,0,0,0,0,0,0,0,0,0,0,0.118,0.1179,0.1175,0.1175,0.1176,0.1176,0.1175,0.1175,0.1161,0.1162,0.1162,0.1162,0.1252,0.1254,0.1257,0,0,0,0,0,0,0,0,0,0,0,0,0,0.1173,0.1179,0.1175,0.1174,0.1175,0.1176,0.1175,0.1175,0.1161,0.1162,0.1162,0.1162,0.1251,0.1254,0.1257,0.1269,0,0,0.1267,0.1268,0,0,0,0,0,0,0,0,0.1173,0.1171,0.1174,0.1174,0.1175,0.1175,0.1211,0.1213,0.1161,0.1159,0.1162,0.1163,0.1239,0.1243,0.1231,0.1274,0.1277,0.1267,0.1269,0.1271,0.1271,0,0,0,0,0,0,0,0.1173,0.1172,0.1168,0.1175,0.1175,0.1181,0.118,0.121,0.1193,0.1159,0.116,0.1171,0.1239,0.1228,0.1234,0.1279,0.1267,0.127,0.1272,0.1273,0.1399,0.1401,0,0,0,0,0,0,0.1185,0.1172,0.1168,0.1169,0.1183,0.1181,0.1179,0.1169,0.1191,0.1196,0.1171,0.1171,0.1222,0.123,0.1237,0.134,0.1271,0.1274,0.1275,0.1398,0.14,0.1401,0,0,0,0,0,0,0.1185,0.1184,0.1168,0.1177,0.1177,0.1181,0.117,0.1169,0.1186,0.12,0.1205,0.1193,0.1223,0.1233,0.1292,0.1341,0.1275,0.1278,0.1396,0.1399,0.1401,0.1492,0,0,0,0,0,0,0.1185,0.1183,0.1196,0.1177,0.1177,0.1185,0.117,0.1169,0.1194,0.1194,0.1221,0.1227,0.1224,0.1287,0.1295,0.1344,0.1281,0.1395,0.1397,0.14,0.1487,0.1497,0.1505,0,0,0,0,0,0.1184,0.1189,0.1196,0.1198,0.1188,0.1186,0.1186,0.1186,0.1195,0.1203,0.123,0.1228,0.1309,0.1291,0.13,0.1351,0.1393,0.1397,0.14,0.1483,0.1495,0.1505,0,0,0,0,0,0,0.1195,0.1188,0.1195,0.1198,0.1206,0.1187,0.1203,0.1207,0.123,0.1248,0.1252,0.1261,0.1329,0.1325,0.1305,0.1392,0.1349,0.1354,0.1409,0.142,0.1429,0.1416,0.1283,0,0,0,0,0,0.1207,0.1206,0.1207,0.1211,0.1221,0.1221,0.123,0.1235,0.1248,0.1258,0.1277,0.1305,0.1343,0.137,0.1392,0.1448,0.1435,0.1483,0.1492,0.15,0.1493,0.1522,0.1534,0.1412,0.1412,0.1412,0,0,0.1214,0.1211,0.1213,0.1216,0.1221,0.1232,0.1225,0.1249,0.1266,0.1269,0.1311,0.1343,0.1364,0.1421,0.1451,0.1431,0.1528,0.1504,0.1511,0.1499,0.1527,0.1539,0.1549,0.1414,0.1414,0.1413,0,0,0.1219,0.1226,0.1232,0.124,0.1266,0.1265,0.1282,0.1291,0.1308,0.1353,0.1367,0.1425,0.1467,0.1494,0.1513,0.1585,0.1574,0.1603,0.1647,0.1676,0.1686,0.1695,0.1698,0.1707,0.1609,0.161,0.161,0,0.1237,0.1232,0.1237,0.1248,0.1263,0.1284,0.1301,0.1318,0.1348,0.1376,0.1378,0.1469,0.1494,0.1572,0.16,0.1607,0.1614,0.1609,0.1689,0.1697,0.1705,0.1706,0.1714,0.1614,0.1614,0.1613,0.1613,0,0.1239,0.1251,0.1257,0.1272,0.129,0.1309,0.1337,0.1371,0.1404,0.1424,0.1511,0.155,0.1605,0.1631,0.1642,0.1725,0.1709,0.1698,0.1663,0.1723,0.172,0.1726,0.1621,0.1619,0.1618,0.1617,0,0,0.1238,0.1255,0.1262,0.1273,0.1308,0.1316,0.1367,0.141,0.1453,0.1505,0.1562,0.1645,0.1686,0.1709,0.1748,0.1779,0.1849,0.1773,0.1773,0.1778,0.1908,0.1783,0.1778,0.1865,0.1867,0.1868,0.1886,0,0.1244,0.1259,0.1272,0.1298,0.131,0.1348,0.1385,0.1438,0.149,0.1551,0.1621,0.1692,0.1712,0.1767,0.1809,0.1843,0.1871,0.1844,0.1846,0.1845,0.1729,0.1783,0.1873,0.1891,0.1892,0.1893,0.1894,0,0.124,0.1252,0.1277,0.1308,0.1321,0.1351,0.1423,0.1462,0.1556,0.1603,0.1696,0.1747,0.1841,0.1832,0.1917,0.1907,0.1917,0.1921,0.1922,0.1774,0.1733,0.1816,0.1906,0.1905,0.1904,0.1903,0.1902,0,0.1218,0.1252,0.127,0.1281,0.1327,0.1365,0.1406,0.1492,0.1544,0.1656,0.1712,0.1812,0.1883,0.1917,0.1955,0.1951,0.2009,0.1996,0.1883,0.1874,0.194,0.193,0.203,0.203,0.203,0.203,0.203,0,0.1192,0.1213,0.1269,0.1275,0.1324,0.1367,0.1437,0.1495,0.1595,0.1659,0.1758,0.1821,0.1912,0.1961,0.1971,0.1948,0.2027,0.1889,0.1874,0.1977,0.1971,0.1944,0.1934,0.2031,0.203,0.203,0.203,0,0.1152,0.1184,0.1214,0.128,0.131,0.1352,0.1451,0.1492,0.1602,0.1692,0.1736,0.1855,0.1911,0.1963,0.2009,0.1958,0.1945,0.1911,0.2012,0.2001,0.1783,0.1778,0.1782,0.1778,0.1774,0.1771,0.1769,0,0.1121,0.1131,0.1215,0.1241,0.1277,0.1348,0.1388,0.1493,0.1538,0.1693,0.1722,0.1828,0.1888,0.1852,0.1909,0.1897,0.1876,0.1848,0.1818,0.1775,0.176,0.176,0.176,0.1763,0.1762,0.1761,0.1761,0,0.1066,0.1113,0.1137,0.1196,0.1246,0.129,0.1362,0.139,0.1504,0.1622,0.1671,0.1702,0.1753,0.1775,0.1777,0.1768,0.1856,0.1811,0.1818,0.1789,0.1753,0.1741,0.1745,0.1748,0.175,0.1751,0.1752,0,0.1036,0.1044,0.1084,0.1129,0.1189,0.121,0.1257,0.13,0.136,0.1527,0.1536,0.1641,0.1739,0.1707,0.1711,0.1691,0.1664,0.1601,0.1619,0.1633,0.1575,0.1506,0.1413,0,0,0,0,0,0.0995,0.0985,0.1009,0.1046,0.1102,0.114,0.1221,0.1266,0.1386,0.1383,0.1458,0.1496,0.1518,0.1566,0.1513,0.1634,0.1663,0.1564,0.1598,0.1681,0.1695,0.1639,0,0,0,0,0,0,0.0962,0.0978,0.0975,0.0967,0.0982,0.1027,0.1076,0.1155,0.1155,0.1288,0.1304,0.1406,0.1443,0.1537,0.1489,0.15,0.1488,0.1629,0.1624,0.1672,0.1685,0.1697,0.1645,0,0,0,0,0]},{"header":{"parameterUnit":"m.s-1","parameterCategory":2,"la1":30.2991,"la2":30.254,"lo1":-89.0895,"lo2":-89.0444,"dy":0.0017,"dx":0.0017,"nx":28,"ny":28,"refTime":"2025-11-11T09:00:00:Z","depth":"4","parameterNumber":3,"parameterNumberName":"V-component_of_CURRENTS"},"data":[0,0,0,0,0,0,0,0,0,0,0,0,0,0,0,0,0,0,0,0,0,0,0,0,0,0,0,0,0,0,0,0,0,0,0,0,0,0,0,0,0,0,0,0,0,0,0,0,0,0,0,0,0,0,0,0,0,0,0.0309,0.0309,0,0.0319,0.0319,0.0319,0.0334,0.0334,0.0334,0.0335,0.0291,0.029,0.0289,0,0,0,0,0,0,0,0,0,0,0,0,0,0.0273,0.0274,0.0309,0.0309,0.0309,0.0319,0.0319,0.0319,0.0334,0.0334,0.0335,0.0335,0.0292,0.029,0.0289,0,0,0,0,0,0,0,0,0,0,0,0,0,0.0287,0.0274,0.0309,0.0317,0.0318,0.0319,0.0319,0.0319,0.0334,0.0334,0.0335,0.0335,0.0292,0.029,0.0289,0.0271,0,0,0.0282,0.0282,0,0,0,0,0,0,0,0,0.0286,0.0288,0.0316,0.0317,0.0317,0.0325,0.029,0.03,0.0334,0.0329,0.0335,0.0335,0.0297,0.0295,0.0298,0.0269,0.0267,0.0282,0.0281,0.028,0.028,0,0,0,0,0,0,0,0.0285,0.0288,0.0314,0.0316,0.0317,0.031,0.0312,0.0292,0.0311,0.0329,0.033,0.033,0.0297,0.03,0.0297,0.0266,0.0282,0.0281,0.0279,0.0279,0.0244,0.0244,0,0,0,0,0,0,0.0284,0.0287,0.0314,0.0314,0.0301,0.031,0.0313,0.0323,0.0312,0.0311,0.0329,0.033,0.0303,0.0299,0.0295,0.0289,0.028,0.0278,0.0277,0.0243,0.0244,0.0244,0,0,0,0,0,0,0.0283,0.0286,0.0313,0.0299,0.0302,0.0311,0.0321,0.0323,0.0334,0.0313,0.0311,0.0339,0.0303,0.0298,0.0285,0.0286,0.0277,0.0276,0.0243,0.0243,0.0244,0.0265,0,0,0,0,0,0,0.0282,0.0286,0.0296,0.03,0.0303,0.032,0.0321,0.0323,0.0332,0.0333,0.032,0.0316,0.0303,0.0288,0.0283,0.0283,0.0274,0.0243,0.0243,0.0244,0.0264,0.0266,0.0268,0,0,0,0,0,0.0281,0.0294,0.0296,0.0299,0.0315,0.032,0.0322,0.0328,0.0332,0.0339,0.0329,0.0317,0.0287,0.0286,0.028,0.028,0.0242,0.0243,0.0244,0.0263,0.0266,0.0268,0,0,0,0,0,0,0.0283,0.0297,0.0299,0.0316,0.032,0.0323,0.033,0.0332,0.0332,0.0332,0.0316,0.0311,0.03,0.0288,0.0287,0.0273,0.0264,0.0264,0.0281,0.0283,0.0285,0.0282,0.0272,0,0,0,0,0,0.0287,0.0301,0.0307,0.0319,0.0324,0.0328,0.0332,0.0335,0.0332,0.0334,0.0326,0.0314,0.0296,0.0289,0.0274,0.0263,0.0228,0.0262,0.0264,0.0265,0.0259,0.0198,0.0193,0.0246,0.0246,0.0246,0,0,0.0289,0.0299,0.0306,0.0321,0.0325,0.0334,0.0332,0.034,0.0346,0.0326,0.0334,0.0318,0.0295,0.0285,0.0279,0.0276,0.0235,0.0266,0.0267,0.026,0.0198,0.0193,0.0188,0.0246,0.0246,0.0246,0,0,0.0298,0.0312,0.0325,0.0331,0.0339,0.0341,0.0346,0.0353,0.0357,0.0357,0.0343,0.0326,0.0314,0.0293,0.028,0.0282,0.0245,0.0285,0.0292,0.0233,0.0228,0.0223,0.0181,0.0171,0.0288,0.0288,0.0288,0,0.0299,0.0321,0.0328,0.0341,0.0347,0.0347,0.0359,0.0361,0.0363,0.0359,0.0364,0.0329,0.0314,0.0283,0.0291,0.0284,0.0251,0.0285,0.0234,0.0228,0.0222,0.018,0.017,0.029,0.0289,0.0289,0.0289,0,0.0316,0.0335,0.0343,0.0361,0.0368,0.0378,0.038,0.0386,0.039,0.0385,0.0364,0.0339,0.0318,0.0313,0.0304,0.0262,0.0251,0.024,0.0225,0.0218,0.0175,0.0163,0.0291,0.0291,0.029,0.029,0,0,0.0319,0.0349,0.0354,0.0367,0.0381,0.0388,0.0395,0.0397,0.0398,0.0388,0.0376,0.0349,0.0333,0.0317,0.0296,0.0251,0.0191,0.0236,0.0232,0.0189,0.0067,0.0097,0.0087,0.0167,0.0165,0.0163,0.0056,0,0.0331,0.0362,0.0372,0.0397,0.0414,0.0415,0.0422,0.0419,0.0414,0.0402,0.0362,0.0345,0.0335,0.0324,0.0275,0.0212,0.0161,0.0221,0.0085,0.0081,0.0103,0.0075,0.0157,0.0048,0.0045,0.0043,0.0042,0,0.0346,0.0367,0.0396,0.0421,0.0428,0.0441,0.0448,0.0456,0.0431,0.0423,0.0388,0.0359,0.03,0.0291,0.0165,0.0204,0.0138,0.0085,0.0079,0.0089,0.0089,0.0054,0.0021,0.0023,0.0024,0.0026,0.0027,0,0.035,0.0384,0.041,0.0419,0.0444,0.0456,0.047,0.0463,0.0472,0.0436,0.043,0.0349,0.0319,0.0215,0.0129,0.0137,-0.0016,-0.0022,-0.0064,-0.0063,-0.0067,-0.0061,-0.013,-0.013,-0.013,-0.0129,-0.0129,0,0.0359,0.0381,0.0417,0.0433,0.0465,0.0474,0.0499,0.0499,0.0493,0.0499,0.0446,0.0424,0.0298,0.0209,0.0114,-0.0001,-0.0032,-0.0074,-0.0095,-0.0052,-0.0043,-0.0075,-0.0067,-0.0133,-0.0132,-0.0132,-0.0131,0,0.0359,0.0382,0.0418,0.0455,0.0471,0.0497,0.054,0.0552,0.0546,0.0549,0.054,0.0467,0.0359,0.0233,0.0065,-0.0003,-0.0128,-0.0163,-0.01,-0.0113,-0.0134,-0.0124,-0.0234,-0.0234,-0.0234,-0.0234,-0.0234,0,0.0361,0.0381,0.0439,0.0469,0.0491,0.0534,0.0563,0.0579,0.0596,0.058,0.0577,0.0486,0.0425,0.0212,0.0076,-0.0116,-0.0134,-0.0204,-0.018,-0.0139,-0.0149,-0.0138,-0.0128,-0.0234,-0.0234,-0.0234,-0.0234,0,0.0363,0.0389,0.042,0.0485,0.0528,0.0575,0.0619,0.0635,0.065,0.0644,0.0607,0.0507,0.0387,0.0226,0.0083,-0.0054,-0.0164,-0.0205,-0.0206,-0.0184,-0.0141,-0.0147,-0.0138,-0.0234,-0.0234,-0.0234,-0.0234,0,0.0368,0.039,0.0438,0.0495,0.0551,0.06,0.0625,0.0647,0.0664,0.0653,0.0638,0.0517,0.0444,0.0258,0.0122,-0.0004,-0.0037,-0.0081,-0.0089,-0.0091,-0.0009,0.007,0.0013,0,0,0,0,0,0.0369,0.0395,0.0444,0.0506,0.0563,0.0601,0.0652,0.0671,0.0688,0.0671,0.066,0.0555,0.0371,0.0287,0.0165,0.011,-0.0069,-0.0038,-0.0127,-0.0234,-0.0234,-0.0158,0,0,0,0,0,0,0.0368,0.0411,0.0437,0.0505,0.0552,0.0613,0.0651,0.0666,0.0659,0.0659,0.0564,0.0526,0.0343,0.0443,0.0163,0.0124,0.0051,-0.0123,-0.0125,-0.0234,-0.0234,-0.0234,-0.0155,0,0,0,0,0]}]]